Weather History for KMQB - November, 2011

Change the Weather History Date:

Friday, November 4, 2011

  Actual Average (KBRL) Record (KBRL)
Temperature  
Mean Temperature 44 °F 48 °F  
Max Temperature 55 °F 58 °F 76 °F (1978)
Min Temperature 32 °F 39 °F 8 °F (1991)
Degree Days  
Heating Degree Days 22 17  
Month to date heating degree days 66  
Since 1 July heating degree days 460  
Cooling Degree Days 0 0  
Month to date cooling degree days 0  
Year to date cooling degree days 1206  
Moisture  
Dew Point 34 °F    
Average Humidity 77    
Maximum Humidity 100    
Minimum Humidity 41    
Precipitation  
Precipitation 0.00 in 0.09 in 1.15 in (1990)
Month to date precipitation 0.36  
Year to date precipitation 34.25  
Sea Level Pressure  
Sea Level Pressure 30.28 in    
Wind  
Wind Speed 7 mph (NE)    
Max Wind Speed 10 mph    
Max Gust Speed -    
Visibility 10 miles    
Events      
T = Trace of Precipitation, MM = Missing Value Source: NWS Daily Summary

Daily Weather History Graph

Daily Weather History Graph

Search for Another Location

Airport or City:

Trip Planner

Search our weather history database for the weather conditions in past years. The results will help you decide how hot, cold, wet, or windy it might be!

Date:

Astronomy

Nov. 04, 2011 Rise Set
Actual Time 7:35 AM CDT 5:56 PM CDT
Civil Twilight 7:07 AM CDT 6:24 PM CDT
Nautical Twilight 6:34 AM CDT 6:56 PM CDT
Astronomical Twilight 6:02 AM CDT 7:28 PM CDT
Moon 2:48 PM CDT (11/4) 1:46 AM CDT (11/4)
Length of Visible Light 11h 17m
Length of Day
10h 20m
Waxing Gibbous, 69% of the Moon is Illuminated
Nov 4
Waxing Gibbous
Nov 10
Full
Nov 18
Last Quarter
Nov 25
New
Dec 2
First Quarter

Hourly Weather History & Observations

Time (CDT) Temp. Windchill Dew Point Humidity Pressure Visibility Wind Dir Wind Speed Gust Speed Precip Events Conditions
12:15 AM 37.4 °F 30.8 °F 33.8 °F 87% 30.24 in 10.0 mi North 9.2 mph - N/A   Clear
12:35 AM 37.4 °F 30.8 °F 33.8 °F 87% 30.23 in 10.0 mi North 9.2 mph - N/A   Clear
12:55 AM 37.4 °F 30.3 °F 33.8 °F 87% 30.23 in 10.0 mi NNE 10.4 mph - N/A   Clear
1:15 AM 37.4 °F 30.3 °F 33.8 °F 87% 30.23 in 10.0 mi North 10.4 mph - N/A   Clear
1:35 AM 35.6 °F 29.9 °F 33.8 °F 93% 30.24 in 10.0 mi North 6.9 mph - N/A   Clear
1:55 AM 35.6 °F 29.9 °F 32.0 °F 87% 30.24 in 10.0 mi North 6.9 mph - N/A   Clear
2:15 AM 35.6 °F 29.9 °F 32.0 °F 87% 30.23 in 10.0 mi North 6.9 mph - N/A   Clear
2:35 AM 33.8 °F 27.0 °F 32.0 °F 93% 30.24 in 10.0 mi North 8.1 mph - N/A   Clear
2:55 AM 33.8 °F 27.0 °F 32.0 °F 93% 30.25 in 10.0 mi North 8.1 mph - N/A   Clear
3:15 AM 33.8 °F 27.7 °F 32.0 °F 93% 30.25 in 10.0 mi NNW 6.9 mph - N/A   Clear
3:35 AM 33.8 °F 27.0 °F 32.0 °F 93% 30.25 in 10.0 mi North 8.1 mph - N/A   Clear
3:55 AM 33.8 °F 27.0 °F 32.0 °F 93% 30.25 in 10.0 mi NNW 8.1 mph - N/A   Clear
4:15 AM 33.8 °F 28.6 °F 32.0 °F 93% 30.26 in 10.0 mi NNW 5.8 mph - N/A   Clear
4:35 AM 33.8 °F 28.6 °F 32.0 °F 93% 30.26 in 10.0 mi NNW 5.8 mph - N/A   Clear
4:55 AM 33.8 °F 27.7 °F 32.0 °F 93% 30.26 in 10.0 mi North 6.9 mph - N/A   Clear
5:15 AM 32.0 °F 27.5 °F 32.0 °F 100% 30.26 in 10.0 mi North 4.6 mph - N/A   Clear
5:35 AM 32.0 °F - 32.0 °F 100% 30.26 in 10.0 mi Calm Calm - N/A   Clear
5:55 AM 32.0 °F 28.7 °F 32.0 °F 100% 30.27 in 10.0 mi NNE 3.5 mph - N/A   Clear
6:15 AM 32.0 °F 27.5 °F 32.0 °F 100% 30.27 in 10.0 mi North 4.6 mph - N/A   Clear
6:35 AM 32.0 °F 27.5 °F 32.0 °F 100% 30.28 in 10.0 mi NW 4.6 mph - N/A   Clear
6:55 AM 32.0 °F 27.5 °F 30.2 °F 93% 30.28 in 10.0 mi NW 4.6 mph - N/A   Clear
7:15 AM 32.0 °F 26.4 °F 32.0 °F 100% 30.28 in 10.0 mi North 5.8 mph - N/A   Clear
7:35 AM 32.0 °F 26.4 °F 30.2 °F 93% 30.30 in 7.0 mi NNW 5.8 mph - N/A   Clear
7:55 AM 32.0 °F 26.4 °F 32.0 °F 100% 30.31 in 10.0 mi NNW 5.8 mph - N/A   Clear
8:15 AM 32.0 °F 28.7 °F 32.0 °F 100% 30.32 in 10.0 mi NNW 3.5 mph - N/A   Clear
8:35 AM 33.8 °F 29.6 °F 32.0 °F 93% 30.32 in 7.0 mi North 4.6 mph - N/A   Clear
8:55 AM 35.6 °F 31.7 °F 33.8 °F 93% 30.33 in 7.0 mi North 4.6 mph - N/A   Clear
9:15 AM 35.6 °F 31.7 °F 33.8 °F 93% 30.33 in 10.0 mi North 4.6 mph - N/A   Clear
9:35 AM 37.4 °F 32.8 °F 35.6 °F 93% 30.33 in 10.0 mi NE 5.8 mph - N/A   Clear
9:55 AM 41.0 °F 37.1 °F 37.4 °F 87% 30.34 in 10.0 mi NNE 5.8 mph - N/A   Clear
10:15 AM 42.8 °F 38.0 °F 37.4 °F 81% 30.33 in 10.0 mi ENE 8.1 mph - N/A   Clear
10:35 AM 42.8 °F 38.6 °F 39.2 °F 87% 30.33 in 10.0 mi NE 6.9 mph - N/A   Clear
10:55 AM 44.6 °F 39.7 °F 41.0 °F 87% 30.33 in 10.0 mi ENE 9.2 mph - N/A   Clear
11:15 AM 44.6 °F 40.2 °F 39.2 °F 81% 30.34 in 10.0 mi ENE 8.1 mph - N/A   Clear
11:35 AM 46.4 °F 41.5 °F 41.0 °F 81% 30.33 in 10.0 mi East 10.4 mph - N/A   Clear
11:55 AM 46.4 °F 42.4 °F 39.2 °F 76% 30.33 in 10.0 mi East 8.1 mph - N/A   Clear
12:15 PM 50.0 °F - 39.2 °F 66% 30.32 in 10.0 mi East 9.2 mph - N/A   Clear
12:35 PM 50.0 °F - 37.4 °F 62% 30.31 in 10.0 mi East 9.2 mph - N/A   Clear
12:55 PM 51.8 °F - 37.4 °F 58% 30.30 in 10.0 mi East 8.1 mph - N/A   Clear
1:15 PM 51.8 °F - 33.8 °F 50% 30.29 in 10.0 mi East 10.4 mph - N/A   Clear
1:35 PM 53.6 °F - 33.8 °F 47% 30.29 in 10.0 mi East 10.4 mph - N/A   Clear
1:55 PM 53.6 °F - 33.8 °F 47% 30.29 in 10.0 mi ESE 10.4 mph - N/A   Clear
2:15 PM 53.6 °F - 33.8 °F 47% 30.28 in 10.0 mi ESE 9.2 mph - N/A   Clear
2:35 PM 55.4 °F - 33.8 °F 44% 30.27 in 10.0 mi ESE 8.1 mph - N/A   Clear
2:55 PM 55.4 °F - 33.8 °F 44% 30.27 in 10.0 mi East 6.9 mph - N/A   Clear
3:15 PM 55.4 °F - 33.8 °F 44% 30.27 in 10.0 mi East 10.4 mph - N/A   Clear
3:35 PM 55.4 °F - 32.0 °F 41% 30.26 in 10.0 mi ESE 5.8 mph - N/A   Clear
3:55 PM 55.4 °F - 33.8 °F 44% 30.26 in 10.0 mi SE 6.9 mph - N/A   Clear
4:15 PM 55.4 °F - 33.8 °F 44% 30.26 in 10.0 mi ESE 5.8 mph - N/A   Clear
4:35 PM 53.6 °F - 33.8 °F 47% 30.26 in 10.0 mi ESE 6.9 mph - N/A   Clear
4:55 PM 53.6 °F - 35.6 °F 51% 30.25 in 10.0 mi SE 6.9 mph - N/A   Clear
5:15 PM 51.8 °F - 37.4 °F 58% 30.25 in 10.0 mi ESE 5.8 mph - N/A   Clear
5:35 PM 51.8 °F - 35.6 °F 54% 30.25 in 10.0 mi SE 3.5 mph - N/A   Clear
5:55 PM 48.2 °F - 35.6 °F 62% 30.25 in 10.0 mi SE 4.6 mph - N/A   Clear
6:15 PM 44.6 °F 41.4 °F 33.8 °F 66% 30.25 in 10.0 mi SE 5.8 mph - N/A   Clear
6:35 PM 42.8 °F 38.6 °F 33.8 °F 70% 30.25 in 10.0 mi SE 6.9 mph - N/A   Clear
6:55 PM 44.6 °F 41.4 °F 35.6 °F 71% 30.25 in 10.0 mi SE 5.8 mph - N/A   Clear
7:15 PM 44.6 °F 41.4 °F 33.8 °F 66% 30.25 in 10.0 mi ESE 5.8 mph - N/A   Clear
7:35 PM 42.8 °F 39.3 °F 33.8 °F 70% 30.25 in 10.0 mi ESE 5.8 mph - N/A   Clear
7:55 PM 41.0 °F 37.1 °F 32.0 °F 70% 30.24 in 10.0 mi ESE 5.8 mph - N/A   Clear
8:15 PM 41.0 °F 37.1 °F 33.8 °F 76% 30.24 in 10.0 mi ESE 5.8 mph - N/A   Clear
8:35 PM 39.2 °F 33.6 °F 33.8 °F 81% 30.24 in 10.0 mi East 8.1 mph - N/A   Clear
8:55 PM 39.2 °F 33.0 °F 33.8 °F 81% 30.23 in 10.0 mi East 9.2 mph - N/A   Clear
9:15 PM 41.0 °F 35.8 °F 33.8 °F 76% 30.23 in 10.0 mi ESE 8.1 mph - N/A   Clear
9:35 PM 39.2 °F 33.6 °F 33.8 °F 81% 30.23 in 10.0 mi ESE 8.1 mph - N/A   Clear
9:55 PM 39.2 °F 33.6 °F 33.8 °F 81% 30.23 in 10.0 mi ESE 8.1 mph - N/A   Clear
10:15 PM 41.0 °F 36.4 °F 33.8 °F 76% 30.23 in 10.0 mi ESE 6.9 mph - N/A   Clear
10:35 PM 39.2 °F 34.2 °F 33.8 °F 81% 30.23 in 10.0 mi ESE 6.9 mph - N/A   Clear
10:55 PM 37.4 °F 31.4 °F 33.8 °F 87% 30.23 in 10.0 mi ESE 8.1 mph - N/A   Clear
11:15 PM 37.4 °F 32.1 °F 33.8 °F 87% 30.22 in 10.0 mi ESE 6.9 mph - N/A   Clear
11:35 PM 37.4 °F 31.4 °F 33.8 °F 87% 30.22 in 10.0 mi ESE 8.1 mph - N/A   Clear
11:55 PM 37.4 °F 31.4 °F 33.8 °F 87% 30.22 in 10.0 mi SE 8.1 mph - N/A   Clear